DW5978 Whyalla SA AU current weather conditions

sailwx.info

Wind from 214 at 10 knots gusting 18

Air temperature 28.9° C
Dewpoint 15.7° C

Last reported at 2018-Feb-19 07:27 UTC.
Time now 2018-Feb-19 09:51 UTC

Location: S 33°01' E 137°32'.
View on Google Maps.

See reports from other nearby stations

  
Tides and Currents Weather Stations Pressure Air Temp Water Temp Dewpoint Dewpoint Depression Visibility Wind Speed Wind Dir Waves Ship Positions
date/time (UTC)wind fromknots sea level pressurealtimeterstation pressurevisibilityair tempwater tempwave heightnotes
2018-Feb-19 07:27 214 10 gusting 18 28.9
2018-Feb-19 07:12 239 10 gusting 14 28.9
2018-Feb-19 06:57 249 8 gusting 16 28.3
2018-Feb-19 06:42 177 7 gusting 18 28.3
2018-Feb-19 06:27 214 10 gusting 19 28.3
2018-Feb-19 06:12 197 9 gusting 17 27.8
2018-Feb-19 05:57 178 7 gusting 18 28.3
2018-Feb-19 05:42 218 11 gusting 19 27.8
2018-Feb-19 05:27 225 9 gusting 20 27.8
2018-Feb-19 05:12 229 7 gusting 14 28.3
2018-Feb-19 04:57 226 10 gusting 16 27.8
2018-Feb-19 04:42 243 8 gusting 13 27.8
2018-Feb-19 04:27 200 9 gusting 15 27.8
2018-Feb-19 04:12 204 8 gusting 17 27.2
2018-Feb-19 03:57 204 7 gusting 16 27.8
2018-Feb-19 03:42 226 7 gusting 18 27.2
2018-Feb-19 03:27 191 8 gusting 14 26.7
2018-Feb-19 03:12 222 8 gusting 17 26.1
2018-Feb-19 02:57 230 7 gusting 13 26.7
2018-Feb-19 02:42 204 7 gusting 14 26.1
2018-Feb-19 02:27 214 7 gusting 13 25.6
2018-Feb-19 02:12 191 6 gusting 13 25.0
2018-Feb-19 01:57 234 8 gusting 13 25.0
2018-Feb-19 01:42 209 8 gusting 15 24.4
2018-Feb-19 01:27 181 6 gusting 11 24.4
2018-Feb-19 01:12 184 7 gusting 13 23.9
2018-Feb-19 00:57 189 8 gusting 14 23.3
2018-Feb-19 00:42 178 6 gusting 13 23.3
2018-Feb-19 00:27 222 6 gusting 13 22.8
2018-Feb-19 00:11 194 8 gusting 13 22.8
2018-Feb-18 23:56 204 7 gusting 13 22.2
2018-Feb-18 23:41 147 8 gusting 16 22.2
2018-Feb-18 23:26 191 6 gusting 13 22.2
2018-Feb-18 23:11 171 7 gusting 14 22.2
2018-Feb-18 22:56 183 10 gusting 17 21.7
2018-Feb-18 22:41 197 7 gusting 14 21.7
2018-Feb-18 22:26 172 6 gusting 18 21.1
2018-Feb-18 22:11 178 6 gusting 13 21.1
2018-Feb-18 21:56 214 6 gusting 12 20.6
2018-Feb-18 21:41 162 6 gusting 13 20.6
2018-Feb-18 21:26 175 5 gusting 13 20.0
2018-Feb-18 21:11 166 5 gusting 7 20.0
2018-Feb-18 20:56 158 5 gusting 11 19.4
2018-Feb-18 20:41 170 4 gusting 12 19.4
2018-Feb-18 20:26 184 5 gusting 9 19.4
2018-Feb-18 20:11 186 5 gusting 12 19.4
2018-Feb-18 19:56 182 5 gusting 8 19.4
2018-Feb-18 19:41 187 4 gusting 8 20.0
2018-Feb-18 19:26 190 3 gusting 9 20.0
2018-Feb-18 19:11 182 3 gusting 9 20.6
2018-Feb-18 18:56 189 3 gusting 8 20.6
2018-Feb-18 18:41 199 5 gusting 8 20.6
2018-Feb-18 18:26 191 4 gusting 9 20.6
2018-Feb-18 18:11 204 3 gusting 8 20.6
2018-Feb-18 17:56 209 2 gusting 6 20.6
2018-Feb-18 17:41 187 5 gusting 9 20.6
2018-Feb-18 17:26 204 4 gusting 7 20.6
2018-Feb-18 17:11 226 3 gusting 8 20.6
2018-Feb-18 16:56 195 4 gusting 6 20.6
2018-Feb-18 16:41 193 4 gusting 8 20.6
2018-Feb-18 16:26 214 3 gusting 7 20.6
2018-Feb-18 16:10 204 3 gusting 6 20.6
2018-Feb-18 15:55 233 2 gusting 7 20.6
2018-Feb-18 15:40 214 2 gusting 7 20.6
2018-Feb-18 15:25 214 2 gusting 6 20.6
2018-Feb-18 15:10 204 3 gusting 6 20.6
2018-Feb-18 14:55 204 4 gusting 7 20.6
2018-Feb-18 14:40 195 4 gusting 8 20.6
2018-Feb-18 14:25 193 2 gusting 8 20.6
2018-Feb-18 14:10 190 4 gusting 8 21.1
2018-Feb-18 13:58 226 4 gusting 8 20.6
2018-Feb-18 13:40 237 3 gusting 6 21.1
2018-Feb-18 13:25 231 4 gusting 10 21.1
2018-Feb-18 13:10 193 5 gusting 10 21.1
2018-Feb-18 12:55 191 4 gusting 13 21.1
2018-Feb-18 12:40 185 6 gusting 11 21.7
2018-Feb-18 12:25 204 5 gusting 12 21.7
2018-Feb-18 12:10 218 6 gusting 11 21.7
2018-Feb-18 11:55 218 4 gusting 9 21.7
2018-Feb-18 11:40 220 3 gusting 7 21.7
2018-Feb-18 11:25 219 3 gusting 8 21.7
2018-Feb-18 11:10 204 4 gusting 8 21.7
2018-Feb-18 10:55 221 4 gusting 7 21.7
2018-Feb-18 10:40 191 4 gusting 9 21.7
2018-Feb-18 10:25 220 3 gusting 7 21.7
2018-Feb-18 10:10 199 3 gusting 6 22.2
2018-Feb-18 09:55 135 1 gusting 3 22.8
2018-Feb-18 09:40 140 2 gusting 4 22.8
2018-Feb-18 09:25 147 2 gusting 5 22.8
2018-Feb-18 09:10 182 2 gusting 6 23.3
2018-Feb-18 08:55 143 3 gusting 7 23.3
2018-Feb-18 08:40 151 4 gusting 7 23.3
2018-Feb-18 08:25 143 4 gusting 10 23.3
2018-Feb-18 08:10 166 4 gusting 8 23.3
2018-Feb-18 07:55 147 3 gusting 7 23.3
2018-Feb-18 07:40 137 5 gusting 9 23.3
2018-Feb-18 07:25 148 2 gusting 6 23.3
2018-Feb-18 07:10 141 3 gusting 8 23.3
2018-Feb-18 06:55 146 3 gusting 8 22.8
2018-Feb-18 06:40 134 4 gusting 10 22.8
2018-Feb-18 06:25 136 3 gusting 7 23.3
2018-Feb-18 06:10 151 4 gusting 9 22.8
2018-Feb-18 05:55 187 6 gusting 11 22.2
2018-Feb-18 05:40 160 6 gusting 13 22.2
2018-Feb-18 05:25 178 6 gusting 11 21.7
2018-Feb-18 05:10 171 5 gusting 11 21.7
2018-Feb-18 04:55 186 5 gusting 11 21.1
2018-Feb-18 04:40 214 4 gusting 8 21.1
2018-Feb-18 04:25 204 4 gusting 9 20.6
2018-Feb-18 04:09 209 5 gusting 8 21.1
2018-Feb-18 03:54 191 3 gusting 7 21.1
2018-Feb-18 03:40 218 4 gusting 12 22.2
2018-Feb-18 03:24 214 6 gusting 13 22.8
2018-Feb-18 03:09 209 8 gusting 14 23.3
2018-Feb-18 02:54 227 9 gusting 15 23.9
2018-Feb-18 02:39 184 10 gusting 18 23.9
2018-Feb-18 02:24 228 10 gusting 16 23.9
2018-Feb-18 02:09 204 9 gusting 20 24.4
2018-Feb-18 01:54 214 11 gusting 19 24.4
2018-Feb-18 01:39 214 10 gusting 18 25.6
2018-Feb-18 01:24 194 8 gusting 17 25.0
2018-Feb-18 01:09 221 8 gusting 19 25.0
2018-Feb-18 00:54 241 9 gusting 21 25.0
2018-Feb-18 00:39 214 11 gusting 24 26.1
2018-Feb-18 00:24 245 13 gusting 21 26.1
2018-Feb-18 00:09 251 9 gusting 18 25.6
2018-Feb-17 23:54 223 8 gusting 16 25.6
2018-Feb-17 23:39 231 7 gusting 13 26.1
2018-Feb-17 23:24 185 6 gusting 10 25.6
2018-Feb-17 23:09 226 4 gusting 6 25.6
2018-Feb-17 22:54 218 1 gusting 6 23.9
2018-Feb-17 22:39 224 2 gusting 6 23.3
2018-Feb-17 22:24 218 3 gusting 6 22.2
2018-Feb-17 22:09 214 1 gusting 3 21.1
2018-Feb-17 21:54 214 0 gusting 3 20.0
2018-Feb-17 21:39 214 0 gusting 3 18.9
2018-Feb-17 21:24 214 0 gusting 3 18.9
2018-Feb-17 21:09 214 18.9
2018-Feb-17 20:54 214 18.3
2018-Feb-17 20:39 214 17.8
2018-Feb-17 20:24 214 0 gusting 2 17.2
2018-Feb-17 20:09 214 0 gusting 2 17.8
2018-Feb-17 19:54 214 18.3
2018-Feb-17 19:39 214 0 gusting 1 18.3
2018-Feb-17 19:24 214 0 gusting 1 17.8
2018-Feb-17 19:09 214 0 gusting 2 18.3
2018-Feb-17 18:54 214 0 gusting 3 17.2
2018-Feb-17 18:39 214 0 gusting 2 18.3
2018-Feb-17 18:24 214 18.9
2018-Feb-17 18:09 214 18.9
2018-Feb-17 17:53 214 0 gusting 1 18.3
2018-Feb-17 17:38 214 19.4
2018-Feb-17 17:23 214 18.9
2018-Feb-17 17:08 214 20.0
2018-Feb-17 16:53 204 2 gusting 3 20.6
2018-Feb-17 16:38 204 2 gusting 4 21.1
2018-Feb-17 16:23 158 0 gusting 1 21.1
2018-Feb-17 16:08 158 21.7
2018-Feb-17 15:53 160 1 gusting 5 21.7
2018-Feb-17 15:38 155 2 gusting 5 22.2
2018-Feb-17 15:23 155 1 gusting 4 21.7
2018-Feb-17 15:08 169 3 gusting 6 22.2
2018-Feb-17 14:53 149 1 gusting 5 22.2
2018-Feb-17 14:38 182 1 gusting 5 22.2
2018-Feb-17 14:23 182 1 gusting 4 22.2
2018-Feb-17 14:08 190 2 gusting 6 22.2
2018-Feb-17 13:53 186 2 gusting 5 22.2
2018-Feb-17 13:38 191 3 gusting 6 22.2
2018-Feb-17 13:23 191 2 gusting 6 22.8
2018-Feb-17 13:08 195 5 gusting 8 22.8
2018-Feb-17 12:53 209 4 gusting 8 22.8
2018-Feb-17 12:38 193 5 gusting 9 23.3
2018-Feb-17 12:23 188 4 gusting 9 23.3
2018-Feb-17 12:08 182 4 gusting 11 23.3
2018-Feb-17 11:53 229 5 gusting 13 23.3
2018-Feb-17 11:38 232 6 gusting 13 23.3
2018-Feb-17 11:23 193 5 gusting 12 23.9
2018-Feb-17 11:08 239 4 gusting 9 23.9
2018-Feb-17 10:53 209 4 gusting 9 23.3
2018-Feb-17 10:38 221 5 gusting 10 23.3
2018-Feb-17 10:23 214 3 gusting 10 23.3
2018-Feb-17 10:09 204 5 gusting 12 23.3
2018-Feb-17 09:53 222 5 gusting 12 23.3
2018-Feb-17 09:38 214 6 gusting 9 23.9
2018-Feb-17 09:23 204 4 gusting 10 24.4
2018-Feb-17 09:08 218 5 gusting 13 25.0